MST,Max TemperatureF,Mean TemperatureF,Min TemperatureF,Max Dew PointF,MeanDew PointF,Min DewpointF,Max Humidity, Mean Humidity, Min Humidity, Max Sea Level PressureIn, Mean Sea Level PressureIn, Min Sea Level PressureIn, Max VisibilityMiles, Mean VisibilityMiles, Min VisibilityMiles, Max Wind SpeedMPH, Mean Wind SpeedMPH, Max Gust SpeedMPH,PrecipitationIn, CloudCover, Events, WindDirDegrees
2013-1-1,32,25,18,23,15,10,74,64,53,30.34,30.22,30.07,10,9,2,26,19,32,0.01,5,Snow,265
2013-1-2,33,25,16,15,10,5,60,51,41,30.43,30.36,30.28,10,10,10,17,15,20,0.00,1,,277
2013-1-3,33,25,16,27,6,1,59,46,32,30.37,30.19,30.07,10,10,10,33,25,40,0.00,0,,230
2013-1-4,38,31,24,15,9,3,50,44,37,30.21,30.08,30.03,10,10,10,24,15,31,0.00,1,,233
2013-1-5,38,30,21,18,15,12,68,56,44,30.35,30.26,30.16,10,10,10,25,15,31,0.00,0,,248
2013-1-6,40,32,23,16,13,11,60,47,33,30.11,29.98,29.91,10,10,10,30,17,36,0.00,1,,236
2013-1-7,46,37,27,22,18,15,63,52,40,29.99,29.85,29.64,10,10,10,28,12,33,0.00,5,,234
2013-1-8,47,40,32,23,18,12,52,39,25,30.04,29.87,29.70,10,10,10,37,15,46,T,4,Snow,272
2013-1-9,54,44,33,25,21,19,51,38,17,30.00,29.87,29.68,10,10,10,30,17,38,0.00,2,,244
2013-1-10,48,33,18,28,20,11,77,57,37,29.73,29.60,29.50,10,10,4,25,14,31,T,5,Snow,20
2013-1-11,18,13,7,10,5,3,92,83,73,30.27,29.96,29.70,6,2,0,20,10,23,0.36,8,Fog-Snow,352
2013-1-12,13,9,4,7,3,1,91,79,67,30.30,30.26,30.05,10,8,3,21,12,24,0.02,5,Snow,232
2013-1-13,16,10,4,6,2,-1,83,72,61,30.36,30.30,30.09,10,10,9,25,16,31,T,6,Snow,234
2013-1-14,17,12,6,6,2,-1,76,65,53,30.31,30.22,29.98,10,10,10,28,21,35,T,5,,238
2013-1-15,34,26,17,17,13,7,80,71,61,30.23,30.17,29.98,10,10,9,33,25,41,T,7,Snow,238
2013-1-16,40,32,24,22,17,14,68,54,40,30.40,30.26,30.07,10,10,10,32,22,39,0.00,2,,243
2013-1-17,40,33,25,21,17,14,63,54,44,30.42,30.29,30.07,10,10,10,33,21,44,0.00,0,,231
2013-1-18,56,45,33,20,17,16,51,36,20,30.08,29.99,29.88,10,10,10,35,18,42,0.00,3,,249
2013-1-19,42,32,22,25,19,14,88,61,33,30.30,30.19,30.04,10,10,10,20,10,22,0.00,0,,272
2013-1-20,40,27,14,19,14,9,84,66,47,30.56,30.45,30.17,10,10,10,22,10,28,0.00,6,,42
2013-1-21,28,20,11,16,12,8,92,75,58,30.40,30.24,30.09,10,10,10,20,6,22,0.00,4,,26
2013-1-22,45,36,27,18,15,13,58,46,33,30.17,30.11,30.07,10,10,10,23,16,26,0.00,0,,231
2013-1-23,32,24,16,17,14,11,80,62,43,30.28,30.18,30.02,10,10,10,16,8,16,0.00,2,,32
2013-1-24,53,37,20,25,20,14,77,55,32,30.14,30.00,29.92,10,10,10,31,13,36,0.00,2,,272
2013-1-25,52,39,25,26,23,19,75,55,35,30.12,30.04,29.94,10,10,10,18,13,18,0.00,4,,227
2013-1-26,54,44,34,26,25,24,64,50,35,29.94,29.80,29.68,10,10,10,18,10,23,T,3,,231
2013-1-27,38,33,28,31,29,25,100,80,59,29.89,29.81,29.72,10,5,0,16,7,19,0.06,7,Fog-Snow,270
2013-1-28,37,30,22,26,20,11,100,69,37,29.91,29.85,29.79,10,9,5,21,12,26,0.00,4,,232
2013-1-29,28,18,7,18,9,1,80,66,51,30.29,30.02,29.76,10,10,3,25,12,30,T,6,Snow,346
2013-1-30,32,20,7,27,19,3,92,78,63,30.13,29.98,29.83,10,6,0,26,13,33,0.09,8,Fog-Snow,311
2013-1-31,28,15,1,21,7,-2,92,83,74,30.34,30.20,30.02,10,6,1,28,13,32,0.05,8,Snow,47